Location: Wells
(51.2093°N, 2.6446°W)
Time: 06:33:31
(UTC+01:00)

PCSat - Pass Details

Date: 11 March 2026
Orbit: 780 x 790 km, 67.1° (Epoch: 13 April)

Event Time Altitude Azimuth Distance (km) Brightness Sun altitude
Exits shadow 04:18:59 - 319° (NW) 2,675 12.1 -21.5°
Reaches altitude 10° 04:20:20 10° 330° (NNW) 2,364 11.9 -21.3°
Maximum altitude 04:23:25 15° 4° (N) 2,032 12.0 -20.9°
Drops below altitude 10° 04:26:29 10° 39° (NE) 2,364 12.9 -20.4°
Sets 04:30:01 0° 63° (ENE) 3,293 14.4 -19.9°
